DECAYED

STARLINK-1788, 46689 (Decayed)

Orbit data source: Space-Track

STARLINK-1788, 46689 was a payload satellite owned by SpaceX/Seattle (US) in LEO that was launched on Sun, 18 Oct 2020 UTC via an FALCON 9 launch vehicle from the Air Force Eastern Test Range (AFETR). Payload-class satellites include a variety of spacecraft equipped with specific instruments for various scientific and technological missions. These include communications satellites like Starlink; space stations such as the ISS; scientific satellites like the Hubble; Earth observation satellites from companies like Planet Labs, Umbra, and HawkEye 360; GPS; miniature CubeSats for education and research; and military/defense satellites.

Not visible in the next 10 days
Identifier
46689, 2020-073V
Orbit
Decayed
Country
Flag of USUS
Related business
Manufacturer
SpaceX/Seattle
Mission
Decayed Commercial Communications
Bus & Motor
STARLINK, Unknown motor
Mass
260 kg wet, ~248 kg dry
Launch date (UTC)
2020-10-18 (6 years ago)
Launch vehicle
FALCON 9
Launch site
Air Force Eastern Test Range (AFETR)
Object type
Payload
Rocket body
Debris
Shape & HBR
Box + 1 Pan, 10.1 m
Radar Cross Section
13.562 m², Large (>1 m²)

Expand to show TLE details & history
Last TLE update: 2 months ago

TLE from 2 months ago
0 STARLINK-1788
1 46689U 20073V   26199.77660068  .06702479  12378-4  65754-3 0  9992
2 46689  53.0131 279.9002 0008504 320.1730  39.8690 16.37363168319439
Epoch: 2026-07-18T18:38Z
TLE epoch observation values (Epoch: 2026-07-18T18:38:18.298Z)
Latitude
-0.00003°
Longitude
63.73944°
Altitude
169.477 km
Speed
7.808 km/s
True Right ascension
18h 39m 36s
True Declination
0° 00' 00"
Sunlit
Object was in full shadow at epoch
Visualization orbit readout
Latitude
Unknown
Longitude
Unknown
Altitude
Unknown
Speed
Unknown
Apparent Right ascension
Unknown
Apparent Declination
Unknown
Sunlit
N/A
Visualization observer readout
Local Sidereal Time
10:57:07
Azimuth
Unknown
Elevation
Unknown
Doppler factor
Unknown
Orbital elements
Apogee altitude
178.69 km
Perigee altitude
167.548 km
Semi-major axis
6,551.256 km
Eccentricity
0.00085
Inclination
53.0131°
RAAN
279.9002°
Arg. of periapsis
320.173°
True anomaly
39.93152°
Mean anomaly
39.869°
Eccentric anomaly
39.90025°
Mean motion
4.09314 °/min
Orbital period
87.95 mins
BSTAR
0.00065754
Loading maneuver chart data...
Computing Atmospheric mass density...

Documentation

Showing up to 5 results
|